Showing default

COSMOS 2526, 43432

Orbit data source: Space-Track

COSMOS 2526, 43432 is a Commonwealth of Independent States-origin payload satellite in GEO that was launched on Wed, 18 Apr 2018 UTC via a PROTON-M/BRIZ-M launch vehicle from the Tyuratam Missile And Space Complex (TTMTR). Payload-class satellites include a variety of spacecraft equipped with specific instruments for various scientific and technological missions. These include communications satellites like Starlink; space stations such as the ISS; scientific satellites like the Hubble; Earth observation satellites from companies like Planet Labs, Umbra, and HawkEye 360; GPS; miniature CubeSats for education and research; and military/defense satellites.

Not visible in the next 10 days
Identifier
43432, 2018-037A
Orbit
GEO
Country
Flag of CISCIS
Related business
Manufacturer
Resehetnev ISS
Mission
Operational Defense Communications
Bus & Motor
EKSPRESS-2000?, AOCS
Mass
3,162 kg wet, ~2,000 kg dry
Launch date (UTC)
2018-04-18 (8 years ago)
Launch vehicle
PROTON-M/BRIZ-M
Launch site
Tyuratam Missile And Space Complex (TTMTR)
Object type
Payload
Rocket body
Debris
Shape & HBR
Cyl + 2 Pan, 13.5 m
Radar Cross Section
24.423 m², Large (>1 m²)

Expand to show TLE details & history
Last TLE update: 17 hours ago

TLE from 17 hours ago
0 COSMOS 2526
1 43432U 18037A   26256.88774260 -.00000354  00000-0  00000-0 0  9991
2 43432   0.0101 168.6492 0000429  36.4474 235.4150  1.00272388 30845
Epoch: 2026-09-13T21:18Z
TLE epoch observation values (Epoch: 2026-09-13T21:18:20.960Z)
Latitude
-0.03468°
Longitude
128.04049°
Altitude
35,786.943 km
Speed
3.075 km/s
True Right ascension
05h 22m 00s
True Declination
0° 02' 05"
Sunlit
Object was in daylight at epoch
Visualization orbit readout
Latitude
Unknown
Longitude
Unknown
Altitude
Unknown
Speed
Unknown
Apparent Right ascension
Unknown
Apparent Declination
Unknown
Sunlit
N/A
Visualization observer readout
Local Sidereal Time
06:43:01
Azimuth
Unknown
Elevation
Unknown
Doppler factor
Unknown
Orbital elements
Apogee altitude
35,789.305 km
Perigee altitude
35,785.687 km
Semi-major axis
42,165.633 km
Eccentricity
0.00004
Inclination
0.0101°
RAAN
168.6492°
Arg. of periapsis
36.4474°
True anomaly
235.41095°
Mean anomaly
235.415°
Eccentric anomaly
235.41298°
Mean motion
0.25067 °/min
Orbital period
1,436.14 mins
BSTAR
0
Loading maneuver chart data...
Computing Atmospheric mass density...
Loading historical data...
Loading historical data...
Loading historical data...
Loading historical data...
Loading historical data...
Loading historical data...
Loading historical data...
Other satellites on launch #37 in the year 2018 (2018-04-18 UTC)

Documentation

Showing up to 5 results
|